EST,Max TemperatureF,Mean TemperatureF,Min TemperatureF,Max Dew PointF,MeanDew PointF,Min DewpointF,Max Humidity, Mean Humidity, Min Humidity, Max Sea Level PressureIn, Mean Sea Level PressureIn, Min Sea Level PressureIn, Max VisibilityMiles, Mean VisibilityMiles, Min VisibilityMiles, Max Wind SpeedMPH, Mean Wind SpeedMPH, Max Gust SpeedMPH,PrecipitationIn, CloudCover, Events, WindDirDegrees
2011-12-1,54,45,35,34,27,24,78,54,35,30.37,30.30,30.15,10,10,10,15,9,23,0.00,0,,340
2011-12-2,52,41,30,39,30,25,82,65,43,30.58,30.41,30.35,10,10,10,9,6,,0.00,1,,300
2011-12-3,51,42,33,34,31,27,79,66,44,30.70,30.63,30.58,10,10,9,9,6,,0.00,1,,308
2011-12-4,54,44,33,43,36,28,82,76,59,30.58,30.49,30.41,10,10,9,7,5,,0.00,0,,274
2011-12-5,57,48,39,51,42,34,86,78,58,30.40,30.30,30.17,10,10,9,9,3,,0.00,5,,270
2011-12-6,62,58,55,57,54,50,94,86,81,30.15,30.02,29.93,10,4,0,14,8,,0.35,8,Fog-Rain,211
2011-12-7,61,51,41,57,52,35,94,86,76,29.93,29.77,29.55,4,2,0,31,8,39,2.77,8,Fog-Rain,5
2011-12-8,48,42,35,35,26,22,79,57,37,30.37,30.23,29.88,10,8,2,22,10,29,0.00,1,,324
2011-12-9,51,42,33,38,32,28,85,74,59,30.36,30.31,30.24,10,10,10,12,6,,0.00,1,,273
2011-12-10,48,42,36,31,22,13,76,44,28,30.56,30.39,30.25,10,10,10,14,8,25,0.00,0,,359
2011-12-11,44,36,28,23,18,11,75,52,28,30.72,30.64,30.56,10,10,10,9,6,,0.00,0,,346
2011-12-12,46,36,27,32,26,21,79,70,47,30.64,30.57,30.50,10,10,10,8,6,,0.00,2,,298
2011-12-13,55,42,30,31,26,22,82,63,29,30.49,30.45,30.40,10,10,10,13,7,,0.00,1,,328
2011-12-14,50,43,36,39,34,27,76,66,50,30.46,30.39,30.31,10,10,10,8,4,,0.00,6,,217
2011-12-15,66,56,46,51,41,36,74,65,54,30.28,30.12,29.92,10,10,10,15,11,24,0.00,1,,209
2011-12-16,64,54,43,51,31,23,67,47,34,30.24,30.14,29.91,10,10,10,26,11,38,0.00,4,,344
2011-12-17,44,39,33,28,24,20,67,54,38,30.26,30.23,30.19,10,10,10,12,6,,0.00,5,,347
2011-12-18,46,38,30,25,23,20,76,56,39,30.37,30.30,30.24,10,10,10,13,7,22,0.00,5,,326
2011-12-19,55,42,28,37,28,22,79,59,34,30.34,30.21,30.09,10,10,10,14,7,24,0.00,3,,230
2011-12-20,55,50,46,40,37,28,74,62,38,30.20,30.15,30.08,10,10,10,6,2,,0.00,6,,211
2011-12-21,66,57,48,58,49,39,90,81,69,30.10,29.93,29.83,10,8,0,15,9,18,0.07,7,Fog-Rain,216
2011-12-22,60,53,46,52,46,42,90,82,60,30.16,30.00,29.83,10,4,0,12,2,,0.69,5,Fog-Rain,307
2011-12-23,54,48,43,49,40,32,86,69,47,30.27,30.05,29.77,10,10,6,18,6,25,0.11,6,Rain,340
2011-12-24,48,41,34,37,28,20,79,58,32,30.49,30.41,30.25,10,10,10,14,4,24,0.00,2,,335
2011-12-25,53,42,32,37,30,25,79,70,34,30.41,30.22,30.05,10,10,10,9,6,,0.00,0,,246
2011-12-26,52,44,36,31,26,23,76,50,35,30.37,30.28,30.08,10,10,10,18,7,26,0.00,2,,337
2011-12-27,55,48,42,50,40,31,88,76,62,30.24,29.69,29.45,10,7,2,28,12,34,0.56,5,Rain,214
2011-12-28,50,42,33,37,26,17,82,55,32,30.05,29.83,29.56,10,10,10,17,6,25,0.00,2,,323
2011-12-29,44,36,28,35,27,19,79,68,55,30.12,30.04,29.99,10,10,10,8,4,,0.00,4,,239
2011-12-30,53,43,33,40,33,27,82,67,45,30.08,29.98,29.89,10,10,10,13,4,,0.00,2,,212
2011-12-31,62,52,43,44,39,36,82,65,38,30.14,29.97,29.85,10,10,10,14,7,16,0.00,2,,282